SCP
2 2 2 2 2 2 2 2 2 2 1 1 1 1 1 1 1 1 1 1 1 1 1 1 1 0 0 0 0 0 0 0 0 0 0 0 0 0 0 0 0 0 0
2 2 2 2 2 2 2 2 2 1 1 1 1 1 1 1 1 1 1 1 1 1 1 1 1 1 0 0 0 0 0 0 0 0 0 0 0 0 0 0 0 0 0
2 2 2 2 2 2 2 2 1 1 1 1 1 1 1 1 1 1 1 1 1 1 1 1 1 1 1 0 0 0 0 0 0 0 0 0 0 0 0 0 0 0 0
2 2 2 2 1 1 1 1 1 1 1 1 1 1 1 1 1 1 1 1 1 1 1 1 1 1 1 1 0 0 0 0 0 0 0 0 0 0 0 0 0 0 0
2 2 2 2 1 1 1 1 1 1 1 1 1 1 1 0 0 1 1 1 1 1 1 1 1 1 1 1 0 0 0 0 0 0 0 0 0 0 0 0 0 0 0
2 2 2 2 1 1 1 1 1 1 1 1 1 1 1 0 0 0 1 1 1 1 1 1 1 1 1 1 1 1 1 0 0 0 0 0 0 0 0 0 0 0 0
2 2 2 1 1 1 1 1 1 1 1 1 1 1 1 1 0 0 0 0 0 1 1 1 1 1 1 1 1 1 1 0 0 0 0 0 0 0 0 0 0 0 0
1 1 1 1 1 1 1 1 1 1 1 1 1 1 1 1 0 0 0 0 0 0 1 1 1 1 1 1 1 1 1 1 0 0 0 0 0 0 0 0 0 0 0
1 1 1 1 1 1 1 1 1 1 1 1 1 1 1 1 0 0 0 0 0 0 1 1 1 1 1 1 1 1 1 1 1 0 0 0 0 0 0 0 0 0 0
1 1 1 1 1 1 1 1 1 1 1 1 1 1 1 1 1 0 0 0 0 0 1 1 1 1 1 1 1 1 1 1 1 0 0 0 0 0 0 0 0 0 0
1 1 1 1 1 1 1 1 1 1 1 1 1 1 1 1 0 0 0 0 0 0 1 1 1 1 1 0 0 0 0 0 0 0 0 0 0 0 0 0 0 0 0
1 1 1 1 1 1 1 1 1 1 1 1 1 1 1 1 0 0 0 0 0 0 1 1 1 0 0 0 0 0 0 0 0 0 0 0 0 0 0 0 0 0 0
1 1 1 1 1 1 1 1 1 1 1 1 1 1 1 1 0 0 0 0 0 0 0 0 0 0 0 0 0 0 0 0 0 0 0 0 0 0 0 0 0 0 0
1 1 1 1 1 1 1 1 1 1 1 1 1 1 1 0 0 0 0 1 0 0 0 0 0 0 0 0 0 0 0 0 0 0 0 0 0 0 0 0 0 0 0
1 1 1 1 1 1 1 1 1 1 1 1 0 0 0 0 0 0 0 0 0 0 0 0 0 0 0 0 0 0 0 0 0 0 0 0 0 0 0 0 0 0 0
1 1 1 1 1 1 1 1 1 1 1 0 0 0 0 0 0 0 0 0 0 0 0 0 0 0 0 0 0 0 0 0 0 0 0 0 0 0 0 0 0 0 0
1 2 2 1 1 1 1 1 1 1 1 1 0 0 0 0 0 0 0 0 0 0 0 0 0 0 0 0 0 0 0 0 0 0 0 0 0 0 0 0 0 0 0
2 2 2 1 1 1 1 1 1 1 1 1 1 0 0 0 0 0 0 0 0 0 0 0 0 0 0 0 0 0 0 0 0 0 0 0 0 0 0 0 0 0 0
2 2 2 1 1 1 1 1 1 1 1 1 1 1 1 0 0 0 0 0 0 0 0 0 0 0 0 0 0 0 0 0 0 0 0 0 0 0 0 0 0 0 0
2 2 2 1 1 1 1 1 1 1 1 1 1 1 1 1 0 0 0 0 0 0 0 0 0 0 0 0 0 0 0 0 0 0 0 0 0 0 0 0 0 0 0
2 2 2 1 1 1 1 1 1 1 1 1 1 1 1 1 1 1 0 0 0 0 0 0 0 0 0 0 0 0 0 0 0 0 0 0 0 0 0 0 0 0 0
2 1 1 1 1 1 1 1 1 1 1 1 1 1 1 1 0 0 0 0 0 0 0 0 0 0 0 0 0 0 0 0 0 0 0 0 0 0 0 0 0 0 0
1 1 1 1 1 1 1 1 1 1 1 1 1 1 1 0 0 0 0 0 0 0 0 0 0 0 0 0 0 0 0 0 0 0 0 0 0 0 0 0 0 0 0
1 1 1 1 1 1 1 1 1 1 1 1 1 1 0 0 0 0 0 0 0 0 0 0 0 0 0 0 0 0 0 0 0 0 0 0 0 0 0 0 0 0 0
0 1 1 1 0 0 0 0 0 0 0 0 0 0 0 0 0 0 0 0 0 0 0 0 0 0 0 0 0 0 0 0 0 0 0 0 0 0 0 0 0 0 0
0 0 0 0 0 0 0 0 0 0 0 0 0 0 0 0 0 0 0 0 0 0 0 0 0 0 0 0 0 0 0 0 0 -0 0 0 0 0 0 0 0 0 0
Wind_Speed
10 10 11 11 11 10 10 10 10 10 8 6 6 5 4 3 3 4 6 6 5 5 3 2 4 2 2 3 3 3 3 2 2 1 1 2 3 4 3 3 3 5 6
10 11 10 10 11 10 10 10 10 10 9 6 5 4 4 3 3 3 5 6 5 5 5 3 3 3 2 2 2 2 1 2 2 1 1 1 1 2 4 3 3 4 4
11 11 11 10 11 11 11 10 10 10 10 8 5 4 3 2 3 3 3 4 5 5 3 4 3 3 3 3 3 3 3 2 2 2 1 1 1 1 1 3 3 3 3
11 11 11 10 11 11 11 10 10 9 8 8 7 8 6 5 5 4 4 5 5 5 5 5 4 3 2 3 4 4 2 2 2 1 1 1 1 1 0 2 2 5 4
10 11 10 10 10 10 10 9 9 9 9 8 8 8 6 5 4 4 5 5 5 5 5 5 4 4 3 4 3 2 2 2 2 1 1 1 1 2 2 2 1 2 2
10 10 9 8 8 9 9 9 9 9 9 9 8 8 8 7 6 5 5 5 4 4 6 6 5 5 4 3 3 2 3 2 1 1 1 1 1 1 1 1 2 2 2
9 10 9 8 8 9 9 9 9 8 8 9 8 8 8 7 7 6 6 6 5 5 6 6 5 4 4 4 4 3 2 3 2 2 2 1 1 1 1 1 1 1 1
10 10 10 9 8 8 8 8 8 8 7 8 7 7 7 5 5 6 5 5 4 5 6 5 5 5 5 5 4 3 4 4 3 4 2 1 2 2 2 1 1 1 1
10 10 10 9 8 7 7 7 7 7 6 7 6 6 6 5 5 5 5 3 3 4 6 6 5 5 5 4 4 3 4 4 4 3 3 2 2 2 2 1 0 1 1
9 10 9 9 8 7 6 5 6 5 5 6 5 5 5 5 5 4 5 4 3 3 4 5 5 4 4 4 4 3 3 3 2 2 2 2 1 1 1 1 1 1 0
10 8 7 8 8 8 7 6 6 5 5 5 4 4 4 5 4 4 4 4 3 3 4 4 4 4 4 4 4 3 3 3 2 2 2 2 1 1 2 1 1 1 1
10 10 8 7 7 8 7 6 6 5 4 4 4 4 4 4 4 4 4 4 4 4 4 4 4 4 4 3 4 4 3 3 3 1 1 1 1 1 2 2 3 2 2
10 10 8 7 7 7 6 7 6 5 5 4 4 4 4 4 4 4 4 4 4 4 4 4 4 3 3 3 3 3 3 3 3 3 3 3 3 3 3 3 3 3 3
8 8 7 6 6 6 6 5 5 5 5 4 4 4 4 4 4 4 4 4 4 4 4 4 4 3 3 4 4 5 5 6 6 7 7 7 6 5 5 4 4 4 5
8 8 7 6 6 6 5 5 5 5 4 4 4 4 4 4 4 5 5 5 5 5 4 4 4 3 3 4 5 6 7 8 9 10 10 10 13 14 10 7 6 6 5
8 8 8 7 6 5 5 5 5 5 5 4 4 5 5 5 5 5 6 6 6 5 5 5 5 4 3 6 10 9 9 9 10 10 9 10 11 16 18 18 17 12 8
7 8 7 7 6 5 5 5 5 5 5 5 5 5 5 6 6 6 6 6 6 6 6 5 6 7 8 11 13 14 10 10 9 9 7 7 9 10 9 14 16 16 17
8 8 7 7 6 6 5 5 6 6 6 6 5 5 6 6 7 7 7 6 6 6 6 7 8 9 10 13 16 16 12 11 10 9 8 8 7 8 9 10 11 10 10
8 7 7 7 6 6 5 5 5 6 5 5 5 5 6 7 7 7 7 6 7 7 7 7 8 9 10 12 14 13 10 10 10 9 9 9 8 11 11 9 9 8 7
7 6 7 7 7 5 5 5 5 5 5 5 5 5 6 6 7 7 7 7 7 8 9 9 9 10 9 10 12 11 8 10 9 9 9 12 11 10 9 7 7 7 4
7 7 7 6 5 5 5 4 4 4 4 5 6 6 6 6 7 7 7 8 9 10 10 11 10 9 10 11 12 10 7 9 9 8 7 7 10 10 10 7 6 5 3
7 7 6 6 5 4 5 5 4 5 5 6 6 6 7 6 7 8 8 8 9 11 10 10 10 8 8 10 12 14 12 10 9 8 6 7 10 10 9 7 6 5 4
6 5 6 6 5 4 4 5 4 5 6 7 7 7 8 7 7 8 8 8 7 8 8 8 9 8 7 9 15 15 15 13 9 8 11 9 9 7 6 7 6 5 3
4 4 5 6 5 5 4 5 5 6 7 7 7 8 9 9 8 6 6 6 6 7 8 8 8 8 7 6 7 8 10 12 10 8 9 8 6 4 5 4 4 3 4
4 5 5 6 5 5 5 5 5 7 8 8 8 9 9 9 9 10 8 7 7 5 8 7 7 8 8 6 7 7 6 6 6 6 4 4 4 3 3 3 3 3 4
6 6 6 6 6 6 6 5 5 6 8 8 8 7 7 8 9 10 11 18 14 16 15 12 11 9 11 12 11 10 10 9 7 5 4 4 4 4 4 3 3 4 3
Wind_Direction
157 153 157 161 164 166 168 169 171 166 167 173 179 183 185 185 178 170 159 165 177 170 187 183 157 185 155 155 157 159 174 209 211 219 227 213 193 187 182 200 178 182 188
155 154 158 164 167 170 172 172 174 171 175 179 177 177 176 187 186 180 159 170 171 174 185 180 180 172 152 171 183 165 179 225 205 192 185 259 266 233 202 185 197 187 180
159 162 166 171 170 171 173 175 176 177 180 175 169 173 167 183 189 170 166 176 173 183 186 168 193 164 177 178 186 190 196 233 240 200 174 175 206 239 237 201 191 180 181
159 162 169 173 174 172 171 170 173 176 179 178 178 179 185 191 190 175 173 180 184 186 182 178 186 181 191 164 195 192 200 214 251 235 196 193 163 187 212 259 201 187 189
161 156 167 171 172 170 169 169 169 175 179 185 187 190 193 190 184 175 177 184 184 189 186 181 181 186 200 186 195 159 181 215 239 248 226 228 212 229 191 223 220 201 190
146 147 154 152 159 164 167 168 170 176 180 187 191 195 194 188 183 183 182 185 184 191 195 187 179 188 200 183 173 177 197 216 278 298 282 227 228 246 228 203 198 198 204
136 139 143 149 157 165 167 168 171 176 179 185 192 193 197 195 194 190 192 193 191 195 198 193 180 192 194 180 178 182 211 210 214 240 268 284 276 264 255 214 220 194 189
137 138 144 152 156 162 164 166 169 175 181 186 192 194 193 195 201 199 198 198 202 197 186 183 181 193 189 191 180 192 201 202 208 228 233 279 289 300 299 253 194 201 229
133 137 142 146 148 152 152 159 159 169 180 187 186 188 188 193 197 192 202 202 198 192 172 175 180 188 190 195 184 206 214 182 195 217 212 226 259 273 292 308 316 193 215
138 137 140 140 144 143 139 140 145 157 168 175 180 181 184 188 187 189 192 194 191 185 164 173 179 181 182 187 193 209 196 176 192 202 204 210 263 291 279 302 334 345 142
124 120 128 133 135 134 136 139 137 146 157 164 167 170 175 180 182 184 184 181 173 161 167 169 175 177 180 177 181 208 179 174 188 211 184 181 236 344 341 13 11 3 44
122 127 133 133 136 137 136 135 139 145 146 149 154 166 168 169 171 175 177 172 162 156 158 160 161 170 167 167 173 195 176 158 168 164 113 132 162 98 359 15 24 37 50
122 126 130 135 132 129 130 135 142 141 142 145 150 152 160 162 164 166 167 157 150 147 142 137 141 153 150 153 165 165 135 118 100 87 74 62 61 56 45 38 32 33 44
121 123 126 124 118 118 118 128 132 130 136 137 135 134 137 139 142 142 138 133 130 126 125 125 125 132 137 137 135 124 106 91 79 72 68 62 61 58 54 52 39 49 56
127 125 126 119 121 119 120 119 115 114 120 125 129 132 125 124 125 122 121 118 116 119 116 111 108 110 126 131 126 116 110 99 87 77 73 72 74 69 66 65 49 49 57
130 129 129 125 125 124 127 123 119 118 118 122 124 122 120 119 118 114 110 109 109 108 106 104 104 102 98 99 109 112 104 99 96 92 85 80 76 78 74 71 66 61 63
130 127 124 124 125 126 126 128 124 125 123 121 119 121 122 120 115 114 109 105 103 102 97 98 97 91 82 91 97 98 98 96 94 93 91 86 79 77 82 76 69 62 61
115 114 117 115 117 121 122 130 132 129 129 128 127 125 124 119 115 111 110 108 105 104 100 94 92 90 86 92 96 96 93 89 87 86 89 90 81 76 84 85 77 67 56
101 104 112 118 119 118 119 126 131 131 133 131 128 128 129 125 123 120 117 114 110 104 99 95 93 93 88 87 95 100 99 96 89 83 77 81 82 76 84 90 92 87 78
97 101 100 103 105 103 110 124 130 132 133 131 130 128 126 124 125 123 120 114 109 106 100 91 87 91 91 86 94 103 108 104 98 88 79 72 76 74 78 87 91 88 83
97 100 99 99 99 103 104 108 106 105 107 114 117 119 120 121 121 118 116 113 110 105 99 95 88 85 86 81 83 94 105 109 106 97 89 78 76 73 69 74 81 86 84
92 93 97 95 94 100 110 109 103 99 99 103 107 110 113 115 116 116 115 115 116 112 107 103 95 84 78 78 81 84 91 100 103 103 100 95 85 76 69 65 58 54 58
89 89 97 98 89 87 99 109 107 108 106 105 105 104 104 99 105 114 119 118 115 114 114 109 104 96 88 84 84 86 90 93 96 99 104 103 96 86 78 74 63 51 47
89 95 98 94 90 87 89 96 100 104 111 112 109 108 107 99 91 89 93 100 108 115 115 115 114 110 103 99 98 100 100 100 101 104 105 101 87 76 73 76 69 60 51
82 84 90 93 88 88 89 96 105 111 111 110 109 106 101 99 90 78 65 76 70 97 115 116 119 121 115 106 108 114 109 109 109 117 121 118 111 106 100 87 72 67 59
86 86 88 93 90 88 92 98 106 120 124 120 114 109 109 105 103 99 81 61 70 74 80 91 103 99 107 112 104 98 99 102 112 115 120 116 111 105 98 92 83 71 55